This demonstration page uses our WeatherBlox Daily Observations layout. Learn more.

41.55636, -103.73856

Hourly Observations for February 12, 2019

Temp ( °F °C ) Dew Point ( °F °C ) Humidity (%) Winds ( mph kmh ) Pressure ( in mb ) Visibility ( mi km ) Precip ( " mm )
12:58 am 00:58 Clear 22 -5.6 7 -13.8 53 53 WNW 22 35 30.05 1018 10 16.0934 N/A
1:58 am 01:58 Clear 20 -6.6 7 -13.9 57 57 WNW 16 26 30.09 1019 10 16.0934 N/A
2:58 am 02:58 Clear 19 -7.4 6 -14.4 58 58 WNW 12 19 30.1 1019 10 16.0934 N/A
3:58 am 03:58 Clear 21 -6.2 6 -14.3 53 53 WNW 13 20 30.09 1019 10 16.0934 N/A
4:58 am 04:58 Clear 24 -4.5 6 -14.3 47 47 WNW 24 39 30.04 1017 10 16.0934 N/A
5:58 am 05:58 Clear 23 -4.9 8 -13.4 52 52 W 25 41 30.04 1017 10 16.0934 N/A
6:58 am 06:58 Mostly Clear 24 -4.6 8 -13.1 52 52 W 23 37 30.08 1019 10 16.0934 N/A
7:58 am 07:58 Clear 23 -4.8 9 -12.9 53 53 W 20 31 30.09 1019 10 16.0934 N/A
8:58 am 08:58 Clear 25 -4 9 -13 50 50 W 22 35 30.08 1019 10 16.0934 N/A
9:58 am 09:58 Clear 25 -3.7 9 -12.8 50 50 W 22 35 30.09 1019 10 16.0934 N/A
10:58 am 10:58 Mostly Clear 24 -4.3 10 -12.4 54 54 W 18 30 30.16 1021 10 16.0934 N/A
11:58 am 11:58 Clear 25 -4.1 9 -12.7 52 52 W 18 30 30.13 1020 10 16.0934 N/A
12:58 pm 12:58 Clear 25 -3.9 9 -12.8 50 50 WNW 20 31 30.15 1021 10 16.0934 N/A
1:58 pm 13:58 Sunny 24 -4.5 9 -12.8 53 53 WNW 20 31 30.15 1021 10 16.0934 N/A
2:58 pm 14:58 Sunny 26 -3.2 10 -12.5 49 49 W 17 28 30.19 1022 10 16.0934 N/A
3:58 pm 15:58 Sunny 31 -0.8 11 -11.7 44 44 W 13 20 30.19 1022 10 16.0934 N/A
4:58 pm 16:58 Sunny 36 2.3 11 -11.8 35 35 W 28 44 30.14 1021 10 16.0934 N/A
5:58 pm 17:58 Sunny 39 3.7 10 -12 31 31 WNW 25 41 30.13 1020 10 16.0934 N/A
6:58 pm 18:58 Sunny 41 4.8 12 -11.1 31 31 NW 26 43 30.13 1020 10 16.0934 N/A
7:58 pm 19:58 Sunny 42 5.3 11 -11.4 29 29 NW 28 44 30.1 1019 10 16.0934 N/A
8:58 pm 20:58 Sunny 43 6 11 -11.8 27 27 NW 26 43 30.06 1018 10 16.0934 N/A
9:58 pm 21:58 Sunny 44 6.9 8 -13.4 22 22 WNW 22 35 30.04 1017 10 16.0934 N/A
10:58 pm 22:58 Sunny 41 4.8 11 -11.4 30 30 NW 17 28 30.08 1019 10 16.0934 N/A

Powered by AerisWeather